Weather History for Edenton, NC

Change the Weather History Date:

Tuesday, February 26, 2013

  Actual Average Record
Temperature  
Mean Temperature 48 °F -  
Max Temperature 61 °F 55 °F 78 °F (1936)
Min Temperature 34 °F 34 °F 14 °F (1967)
Degree Days  
Heating Degree Days 18    
Moisture  
Dew Point 48 °F    
Average Humidity 96    
Maximum Humidity 100    
Minimum Humidity 87    
Precipitation  
Precipitation 1.06 in - - ()
Sea Level Pressure  
Sea Level Pressure 29.89 in    
Wind  
Wind Speed 8 mph (East)    
Max Wind Speed 20 mph    
Max Gust Speed 30 mph    
Visibility 7 miles    
Events Fog , Rain    
Averages and records for this station are not official NWS values.
T = Trace of Precipitation, MM = Missing Value Source: NWS Daily Summary

Daily Weather History Graph

Daily Weather History Graph

Search for Another Location

Airport:

Trip Planner

Search our weather history database for the weather conditions in past years. The results will help you decide how hot, cold, wet, or windy it might be!

Date:

Astronomy

Feb. 26, 2013 Rise Set
Actual Time 6:40 AM EST 5:58 PM EST
Civil Twilight 6:14 AM EST 6:24 PM EST
Nautical Twilight 5:44 AM EST 6:54 PM EST
Astronomical Twilight 5:14 AM EST 7:23 PM EST
Moon 7:08 PM EST (2/26) 6:44 AM EST (2/26)
Length of Visible Light 12h 10m
Length of Day
11h 18m
Full, 99% of the Moon is Illuminated
Feb 26
Full
Mar 4
Last Quarter
Mar 11
New
Mar 19
First Quarter
Mar 27
Full

Hourly Weather History & Observations

Time (EST) Temp. Windchill Dew Point Humidity Pressure Visibility Wind Dir Wind Speed Gust Speed Precip Events Conditions
12:15 AM 34.7 °F 30.6 °F 31.1 °F 87% 30.16 in 10.0 mi NE 4.6 mph - N/A   Clear
12:35 AM 34.2 °F - 30.9 °F 88% 30.16 in 10.0 mi Calm Calm - N/A   Clear
12:55 AM 34.0 °F 31.0 °F 31.1 °F 89% 30.16 in 10.0 mi NE 3.5 mph - N/A   Clear
1:15 AM 34.0 °F 29.8 °F 31.5 °F 90% 30.16 in 10.0 mi NE 4.6 mph - N/A   Clear
1:35 AM 34.7 °F 31.8 °F 32.0 °F 90% 30.15 in 10.0 mi NE 3.5 mph - N/A   Clear
1:55 AM 35.1 °F 31.0 °F 32.0 °F 89% 30.14 in 10.0 mi NE 4.6 mph - N/A   Clear
2:15 AM 35.2 °F 31.2 °F 32.0 °F 88% 30.14 in 10.0 mi NE 4.6 mph - N/A   Clear
2:35 AM 35.1 °F - 32.0 °F 89% 30.14 in 10.0 mi Calm Calm - N/A   Clear
2:55 AM 34.7 °F 31.8 °F 32.0 °F 90% 30.14 in 10.0 mi NE 3.5 mph - N/A   Clear
3:15 AM 34.7 °F 30.6 °F 32.2 °F 91% 30.12 in 10.0 mi NE 4.6 mph - N/A   Clear
3:35 AM 35.1 °F 31.0 °F 32.5 °F 91% 30.12 in 10.0 mi NE 4.6 mph - N/A   Clear
3:55 AM 35.6 °F 31.7 °F 32.9 °F 90% 30.12 in 10.0 mi NE 4.6 mph - N/A   Clear
4:15 AM 35.6 °F 31.7 °F 33.1 °F 91% 30.12 in 10.0 mi NE 4.6 mph - N/A   Clear
4:35 AM 36.1 °F 30.6 °F 33.8 °F 91% 30.10 in 10.0 mi NE 6.9 mph - N/A   Clear
4:55 AM 37.0 °F 31.6 °F 34.3 °F 90% 30.10 in 10.0 mi ENE 6.9 mph - N/A   Clear
5:15 AM 37.8 °F 31.8 °F 35.1 °F 90% 30.10 in 10.0 mi ENE 8.1 mph - N/A   Scattered Clouds
5:35 AM 38.5 °F 32.7 °F 35.8 °F 90% 30.10 in 10.0 mi NE 8.1 mph - N/A   Mostly Cloudy
5:55 AM 39.2 °F 33.6 °F 36.1 °F 89% 30.12 in 10.0 mi NE 8.1 mph - N/A   Mostly Cloudy
6:15 AM 39.4 °F 33.8 °F 36.7 °F 90% 30.08 in 10.0 mi ENE 8.1 mph - N/A   Overcast
6:35 AM 39.7 °F 34.9 °F 37.4 °F 91% 30.08 in 10.0 mi NE 6.9 mph - N/A   Overcast
6:55 AM 40.5 °F 36.5 °F 37.9 °F 91% 30.08 in 10.0 mi NE 5.8 mph - N/A   Overcast
7:15 AM 41.0 °F 37.1 °F 38.7 °F 91% 30.08 in 10.0 mi NE 5.8 mph - N/A   Overcast
7:35 AM 41.9 °F 36.9 °F 39.4 °F 91% 30.09 in 10.0 mi NE 8.1 mph - N/A   Overcast
7:55 AM 42.4 °F 38.1 °F 40.1 °F 91% 30.08 in 10.0 mi ENE 6.9 mph - N/A   Mostly Cloudy
8:15 AM 43.2 °F 37.9 °F 40.6 °F 91% 30.09 in 10.0 mi ENE 9.2 mph - N/A   Scattered Clouds
8:35 AM 44.1 °F 40.1 °F 41.5 °F 91% 30.09 in 10.0 mi ENE 6.9 mph - N/A   Light Drizzle
8:55 AM 44.8 °F 41.6 °F 42.8 °F 93% 30.09 in 10.0 mi ENE 5.8 mph - N/A   Drizzle
9:35 AM 47.7 °F - 47.7 °F 100% 30.05 in 10.0 mi East 9.2 mph - N/A Rain Rain
9:55 AM 49.3 °F - 49.3 °F 100% 30.04 in 10.0 mi East 9.2 mph - N/A Rain Light Rain
10:15 AM 50.4 °F - 50.0 °F 99% 30.04 in 10.0 mi East 11.5 mph 17.3 mph N/A Rain Light Rain
10:35 AM 50.2 °F - 50.0 °F 99% 30.03 in 10.0 mi East 11.5 mph 18.4 mph 0.01 in Rain Rain
10:55 AM 50.0 °F - 50.0 °F 100% 30.01 in 10.0 mi East 12.7 mph - 0.02 in Rain Light Rain
11:15 AM 50.5 °F - 50.5 °F 100% 30.01 in 7.0 mi East 10.4 mph 17.3 mph 0.01 in Rain Light Rain
11:35 AM 50.9 °F - 50.9 °F 100% 29.99 in 7.0 mi ESE 11.5 mph 18.4 mph 0.03 in Rain Light Rain
11:55 AM 50.9 °F - 50.9 °F 100% 29.96 in 7.0 mi East 12.7 mph - 0.06 in Rain Light Rain
12:15 PM 51.6 °F - 51.6 °F 100% 29.94 in 10.0 mi East 10.4 mph 16.1 mph 0.01 in Rain Rain
12:35 PM 52.0 °F - 52.0 °F 100% 29.93 in 10.0 mi ESE 12.7 mph 20.7 mph 0.02 in Rain Light Rain
12:55 PM 52.2 °F - 52.2 °F 100% 29.92 in 7.0 mi ESE 10.4 mph 17.3 mph 0.04 in Rain Rain
1:15 PM 52.2 °F - 52.2 °F 100% 29.91 in 5.0 mi ESE 12.7 mph 20.7 mph 0.02 in   Drizzle
1:35 PM 52.3 °F - 52.3 °F 100% 29.90 in 5.0 mi ESE 9.2 mph - 0.04 in Rain Light Rain
1:55 PM 52.3 °F - 52.3 °F 100% 29.87 in 5.0 mi East 11.5 mph - 0.07 in Rain Light Rain
2:15 PM 52.7 °F - 52.7 °F 100% 29.86 in 5.0 mi East 11.5 mph 18.4 mph 0.02 in Rain Light Rain
2:35 PM 52.7 °F - 52.7 °F 100% 29.82 in 4.0 mi ESE 18.4 mph 24.2 mph 0.05 in Rain Rain
2:55 PM 53.8 °F - 53.8 °F 100% 29.80 in 3.0 mi ESE 19.6 mph 29.9 mph 0.10 in Rain Heavy Rain
3:15 PM 53.6 °F - 53.6 °F 100% 29.81 in 3.0 mi East 16.1 mph 24.2 mph 0.05 in Rain Rain
3:35 PM 53.8 °F - 53.8 °F 100% 29.79 in 3.0 mi East 15.0 mph 24.2 mph 0.13 in Rain Light Rain
3:55 PM 53.8 °F - 53.8 °F 100% 29.77 in 2.0 mi East 15.0 mph 27.6 mph 0.28 in Rain Heavy Rain
4:15 PM 53.6 °F - 53.6 °F 100% 29.73 in 2.5 mi East 17.3 mph 26.5 mph 0.11 in Rain Rain
4:35 PM 52.7 °F - 52.7 °F 100% 29.70 in 3.0 mi East 19.6 mph 26.5 mph 0.16 in Rain Heavy Rain
4:55 PM 53.6 °F - 53.6 °F 100% 29.68 in 3.0 mi ESE 15.0 mph 20.7 mph 0.22 in Rain Rain
5:15 PM 55.9 °F - 55.9 °F 100% 29.68 in 3.0 mi ESE 11.5 mph - 0.07 in Rain Rain
5:35 PM 57.7 °F - 57.7 °F 100% 29.67 in 4.0 mi SE 13.8 mph 18.4 mph 0.10 in Rain Light Rain
5:55 PM 59.5 °F - 59.5 °F 100% 29.66 in 10.0 mi SE 15.0 mph 23.0 mph 0.10 in   Overcast
6:15 PM 60.8 °F - 60.8 °F 100% 29.64 in 7.0 mi SSE 15.0 mph 21.9 mph N/A Rain Rain
6:35 PM 60.4 °F - 60.4 °F 100% 29.63 in 7.0 mi SSE 12.7 mph 21.9 mph 0.01 in Rain Light Rain
6:55 PM 61.0 °F - 61.0 °F 100% 29.62 in 10.0 mi SSE 15.0 mph 23.0 mph 0.04 in Rain Light Rain
7:15 PM 61.0 °F - 61.0 °F 100% 29.62 in 5.0 mi SSE 13.8 mph - 0.03 in Rain Light Rain
7:35 PM 61.0 °F - 61.0 °F 100% 29.62 in 4.0 mi South 11.5 mph - 0.12 in Rain Heavy Rain
7:55 PM 61.3 °F - 61.3 °F 100% 29.61 in 7.0 mi South 11.5 mph - 0.13 in   Overcast
8:15 PM 61.7 °F - 61.7 °F 100% 29.61 in 7.0 mi South 13.8 mph - N/A   Overcast
8:35 PM 61.3 °F - 61.3 °F 100% 29.62 in 7.0 mi South 10.4 mph - N/A   Overcast
8:55 PM 61.7 °F - 61.7 °F 100% 29.61 in 7.0 mi South 10.4 mph - N/A   Mostly Cloudy
9:15 PM 60.8 °F - 60.8 °F 100% 29.60 in 5.0 mi South 8.1 mph - N/A   Mostly Cloudy
9:35 PM 60.1 °F - 60.1 °F 100% 29.59 in 3.0 mi South 8.1 mph - N/A   Overcast
9:55 PM 59.9 °F - 59.9 °F 100% 29.59 in 1.2 mi SSW 5.8 mph - N/A   Overcast
10:15 PM 61.0 °F - 61.0 °F 100% 29.58 in 4.0 mi SSW 4.6 mph - N/A   Overcast
10:35 PM 59.2 °F - 59.2 °F 100% 29.58 in 0.5 mi SSW 5.8 mph - N/A Fog Fog
10:55 PM 59.2 °F - 59.2 °F 100% 29.58 in 0.5 mi SSW 6.9 mph - N/A Fog Fog
11:15 PM 61.3 °F - 61.3 °F 100% 29.57 in 5.0 mi SW 8.1 mph - N/A   Scattered Clouds
11:35 PM 61.7 °F - 61.7 °F 100% 29.58 in 7.0 mi SW 9.2 mph - N/A   Scattered Clouds
11:55 PM 60.6 °F - 60.6 °F 100% 29.58 in 7.0 mi West 8.1 mph 19.6 mph N/A   Mostly Cloudy